Simultaneous Nadir Overpasses (SNOs) Predictions

Prediction of SNOs between GOES-15 and TERRA Satellite Orbit:

Table of predicted SNOs for the next 14.0 days since TLE Epoch: 10/5/2012
Index Date Time (GOES-15) GOES-15 Lat,Lon TERRA Lat,Lon Distance(km) Time Diff (sec)
1 10/06/2012 07:42:30 0.35,-135.40 -0.17,-137.88 281.74 80
2 10/08/2012 07:27:36 0.35,-135.40 0.47,-134.92 55.53 80
3 10/10/2012 07:15:21 0.35,-135.40 1.07,-131.95 392.24 80
4 10/10/2012 19:36:36 -0.34,-135.40 0.02,-137.10 193.00 80
5 10/12/2012 19:27:01 -0.34,-135.39 -0.59,-134.13 143.24 80
6 10/13/2012 07:48:24 0.33,-135.39 -0.53,-139.32 447.38 80
7 10/14/2012 19:14:46 -0.34,-135.38 -1.21,-131.16 478.81 80
8 10/15/2012 07:36:09 0.33,-135.37 0.09,-136.34 112.15 80
9 10/17/2012 07:21:14
